This demonstration page uses our WeatherBlox Daily Observations layout. Learn more.

Left ArrowRight Arrow

40.92501, -98.34201

Hourly Observations for August 25, 2020

Temp ( °F °C ) Dew Point ( °F °C ) Humidity (%) Winds ( mph kmh ) Pressure ( in mb ) Visibility ( mi km ) Precip ( " mm )
12:53 am 00:53 Clear 76 24.4 61 16.1 60 60 S 9 15 29.95 1014 10 16 0.00 0.00
1:53 am 01:53 Clear 76 24.4 61 16.1 60 60 S 12 19 29.95 1014 10 16 0.00 0.00
2:53 am 02:53 Clear 76 24.4 61 16.1 60 60 S 13 20 29.94 1014 10 16 0.00 0.00
3:53 am 03:53 Clear 72 22.2 61 16.1 68 68 S 10 17 29.94 1014 10 16 0.00 0.00
4:53 am 04:53 Clear 70 21.1 61 16.1 73 73 S 9 15 29.95 1014 10 16 0.00 0.00
5:53 am 05:53 Clear 69 20.6 61 16.1 76 76 S 10 17 29.95 1014 9 14 0.00 0.00
6:53 am 06:53 Clear 69 20.6 61 16.1 76 76 S 12 19 29.96 1014 8 13 0.00 0.00
7:53 am 07:53 Sunny 70 21.1 61 16.1 73 73 S 12 19 29.96 1015 7 11 0.00 0.00
8:53 am 08:53 Sunny 76 24.4 61 16.1 60 60 SSW 13 20 29.96 1015 9 14 0.00 0.00
9:53 am 09:53 Sunny 80 26.7 61 16.1 52 52 SSW 15 24 29.96 1014 9 14 0.00 0.00
10:53 am 10:53 Sunny 85 29.4 61 16.1 45 45 SSW 18 30 29.95 1014 10 16 0.00 0.00
11:53 am 11:53 Sunny 87 30.6 61 16.1 42 42 SSW 16 26 29.95 1014 10 16 0.00 0.00
12:53 pm 12:53 Sunny 90 32.2 62 16.7 39 39 S 18 30 29.93 1014 10 16 0.00 0.00
1:53 pm 13:53 Sunny 93 33.9 61 16.1 34 34 S 20 31 29.92 1013 10 16 0.00 0.00
2:53 pm 14:53 Sunny 95 35 61 16.1 32 32 S 18 30 29.91 1013 10 16 0.00 0.00
3:53 pm 15:53 Sunny 96 35.6 57 13.9 27 27 SSW 18 30 29.90 1013 10 16 0.00 0.00
4:53 pm 16:53 Sunny 96 35.6 57 13.9 27 27 SSW 15 24 29.89 1012 10 16 0.00 0.00
5:53 pm 17:53 Sunny 93 33.9 60 15.6 33 33 S 15 24 29.88 1012 10 16 0.00 0.00
6:53 pm 18:53 Sunny 90 32.2 62 16.7 39 39 S 13 20 29.88 1012 10 16 0.00 0.00
7:53 pm 19:53 Sunny 84 28.9 62 16.7 48 48 SSE 10 17 29.88 1012 10 16 0.00 0.00
8:53 pm 20:53 Clear 80 26.7 61 16.1 52 52 S 12 19 29.89 1012 10 16 0.00 0.00
9:53 pm 21:53 Clear 79 26.1 59 15 50 50 S 10 17 29.89 1012 10 16 0.00 0.00
10:53 pm 22:53 Clear 74 23.3 59 15 60 60 S 10 17 29.90 1013 10 16 0.00 0.00
11:53 pm 23:53 Clear 74 23.3 58 14.4 57 57 S 13 20 29.90 1012 10 16 0.00 0.00

Powered by AerisWeather